Regional Weather Roundup
Issued by NWS Jackson, KY

Home | Current Version | Previous Version | Text Only | Print | Product List | Glossary On
Versions: 1 2 3 4 5 6 7 8 9 10 11 12 13 14 15 16 17 18 19 20 21 22 23 24 25 26
000
ASUS43 KJKL 270010
RWRJKL

EAST KENTUCKY HOURLY WEATHER ROUNDUP
NATIONAL WEATHER SERVICE JACKSON KY
800 PM EDT THU MAY 26 2016

NOTE: "FAIR" INDICATES FEW OR NO CLOUDS BELOW 12,000 FEET WITH
NO SIGNIFICANT WEATHER AND/OR OBSTRUCTIONS TO VISIBILITY.

* THESE REPORTS ARE NOT UNDER NWS QUALITY CONTROL AND MAY NOT
  REPORT WEATHER SUCH AS PRECIPITATION AND FOG.

KYZ079-080-083-085-087-088-110-112-115-119-120-270100
...EASTERN KENTUCKY...

CITY           SKY/WX    TMP DP  RH WIND       PRES   REMARKS
JACKSON        LGT RAIN  70  65  84 CALM      30.09S
6HR MIN TEMP:  69; 6HR MAX TEMP:  77; 6HR PCP:  0.03;

LONDON         LGT RAIN  66  62  87 S6        30.11F
6HR MIN TEMP:  66; 6HR MAX TEMP:  80; 6HR PCP:  0.01;

SOMERSET*      CLOUDY    63  63 100 S5        30.10F
MONTICELLO*    LGT RAIN  65  64  97 NE7       30.11F
6HR MIN TEMP:  65; 6HR MAX TEMP:  82; 6HR PCP:  1.35;

MIDDLESBORO*   MOCLDY    75  62  62 W3        30.13R
6HR MIN TEMP:  69; 6HR MAX TEMP:  80;

HARLAN APT*    CLOUDY    72  63  73 CALM      30.13S
HAZARD APT*    LGT RAIN  72  68  88 S7        30.10R
BLACK MTN*       N/A     63  55  77 SW6         N/A
PIKE CO APT*     N/A     74  65  74 CALM      30.10R
BIG SANDY APT* CLEAR     76  65  67 S5        30.08F
MOREHEAD APT*  LGT RAIN  68  64  88 SW6       30.05F
ASHLAND*       CLOUDY    79  68  69 S6        30.00S
$$

KYZ035-036-041-042-044-050-067-078-099-270100
...CENTRAL KENTUCKY...

CITY           SKY/WX    TMP DP  RH WIND       PRES   REMARKS
MT STERLING*   LGT RAIN N/A N/A N/A S7        30.05F
DANVILLE*      MOCLDY    64  63  94 SW3       30.05S
RICHMOND*      CLOUDY    66  63  88 SE8       30.04F
LEXINGTON      CLOUDY    67  64  90 S3        30.03F
6HR MIN TEMP:  66; 6HR MAX TEMP:  81; 6HR PCP:  0.21;

FRANKFORT      CLOUDY    68  64  87 SE6       30.00F
6HR MIN TEMP:  68; 6HR MAX TEMP:  83; 6HR PCP:  0.16;

LOUISVILLE     CLOUDY    70  64  81 SE8       29.99S
6HR MIN TEMP:  67; 6HR MAX TEMP:  81; 6HR PCP:  0.48;

LEBANON*         N/A     66  64  94 S14       30.02F
GLASGOW*       LGT RAIN  66  66 100 SE5       30.04F
BOWLING GREEN  CLOUDY    68  66  93 S6        30.05F
6HR MIN TEMP:  67; 6HR MAX TEMP:  82; 6HR PCP:  1.33;

$$

KYZ091>093-OHZ055-061-077-WVZ005-015-034-035-042-270100
...SOUTHERN OHIO/WEST VIRGINIA...

CITY           SKY/WX    TMP DP  RH WIND       PRES   REMARKS
COVINGTON      CLOUDY    69  66  90 S7        29.98F
COLUMBUS       CLOUDY    77  66  68 S10       29.98S
DAYTON         CLOUDY    73  62  68 S10       29.96F
WILMINGTON     CLOUDY    71  65  81 S6        29.99S
HUNTINGTON       N/A     77  66  68 S6        30.03S
CHARLESTON       N/A     76  62  62 SW7       30.05F
PINEVILLE*       N/A     69  63  81 MISG      30.16F
BECKLEY          N/A     71  59  65 SW6       30.15S
BLUEFIELD        N/A     70  59  68 W6        30.18R
$$

VAZ002-007-008-TNZ017-027-036-066-071-270100
...SOUTHWEST VIRGINIA/EAST TENNESSEE...

CITY           SKY/WX    TMP DP  RH WIND       PRES   REMARKS
WISE*            N/A     72  55  56 SW3       30.19R
JONESVILLE*      N/A     73  64  73 CALM      30.15R
ABINGDON*        N/A     73  64  72 W3        30.16S
BRISTOL        PTCLDY    74  63  68 CALM      30.13S
KNOXVILLE      PTCLDY    79  62  56 NE7       30.09R
OAK RIDGE      CLOUDY    79  63  57 E3        30.11R
CROSSVILLE     CLOUDY    71  61  70 N12G18    30.15R
NASHVILLE      CLOUDY    72  65  78 NW6       30.07R THUNDER
$$

...KEY TO REMARKS...
VSB - VISIBILITY IN MILES
WCI - WIND CHILL INDEX
HX  - HEAT INDEX

$$




USA.gov is the U.S. government's official web portal to all federal, state and local government web resources and services.